Probability
0 0 0 0 0 0 0 0 0 0 0 0 0 0 0 0 0 0 0 0 0 0 0 0 0 0 0 0 0 0 0 0 0 0 0 0 0 0 0 0 0 0 0 0
0 0 0 0 0 0 0 0 0 0 0 0 0 0 0 0 0 0 0 0 0 0 0 0 0 0 0 0 0 0 0 0 0 0 0 0 0 0 0 0 0 0 0 0
0 0 0 0 0 0 0 0 0 0 0 0 0 0 0 0 0 0 0 0 0 0 0 0 0 0 0 0 0 0 0 0 0 0 0 0 0 0 0 0 0 0 0 0
0 0 0 0 0 0 0 0 0 0 0 0 0 0 0 0 0 0 0 0 0 0 0 0 0 0 0 0 0 0 0 0 0 0 0 0 0 0 0 0 0 0 0 0
0 0 0 0 0 0 0 0 0 0 0 0 0 0 0 0 0 0 0 0 0 0 0 0 0 0 0 0 0 0 0 0 0 0 0 0 0 0 0 0 0 0 0 0
0 0 0 0 0 0 0 0 0 0 0 0 0 0 0 0 0 0 0 0 0 0 0 0 0 0 0 0 0 0 0 0 0 0 0 0 0 0 0 0 0 0 0 0
0 0 0 0 0 0 0 0 0 0 0 0 0 0 0 0 0 0 0 0 0 0 0 0 0 0 0 0 0 0 0 0 0 0 0 0 0 0 0 0 0 0 0 0
0 0 0 0 0 0 0 0 0 0 0 0 0 0 0 0 0 0 0 0 0 0 0 0 0 0 0 0 0 0 0 0 0 0 0 0 0 0 0 0 0 0 0 0
0 0 0 0 0 0 0 0 0 0 0 0 0 0 0 0 0 0 0 0 0 0 0 0 0 0 0 0 0 0 0 0 0 0 0 0 0 0 0 0 0 0 0 0
0 0 0 0 0 0 0 0 0 0 0 0 0 0 0 0 0 0 0 0 0 0 0 0 0 0 0 0 0 0 0 0 0 0 0 0 0 0 0 0 0 0 0 0
0 0 0 0 0 0 0 0 0 0 0 0 0 0 0 0 0 0 0 0 0 0 0 0 0 0 0 0 0 0 0 0 0 0 0 0 0 0 0 0 0 0 0 0
0 0 0 0 0 0 0 0 0 0 0 0 0 0 0 0 0 0 0 0 0 0 0 0 0 0 0 0 0 0 0 0 0 0 0 0 0 0 0 0 0 0 0 0
0 0 0 0 0 0 0 0 0 0 0 0 0 0 0 0 0 0 0 0 0 0 0 0 0 0 0 0 0 0 0 0 0 0 0 0 0 0 0 0 0 0 0 0
0 0 0 0 0 0 0 0 0 0 0 0 0 0 0 0 0 0 0 0 0 0 0 0 0 0 0 0 0 0 0 0 0 0 0 0 0 0 0 0 0 0 0 0
0 0 0 0 0 0 0 0 0 0 0 0 0 0 0 0 0 0 0 0 0 0 0 0 0 0 0 0 0 0 0 0 0 0 0 0 0 0 0 0 0 0 0 0
0 0 0 0 0 0 0 0 0 0 0 0 0 0 0 0 0 0 0 0 0 0 0 0 0 0 0 0 0 0 0 0 0 0 0 0 0 0 0 0 0 0 0 0
0 0 0 0 0 0 0 0 0 0 0 0 0 0 0 0 0 0 0 0 0 0 0 0 0 0 0 0 0 0 0 0 0 0 0 0 0 0 0 0 0 0 0 0
0 0 0 0 0 0 0 0 0 0 0 0 0 0 0 0 0 0 0 0 0 0 0 0 0 0 0 0 0 0 0 0 0 0 0 0 0 0 0 0 0 0 0 0
0 0 0 0 0 0 0 0 0 0 0 0 0 0 0 0 0 0 0 0 0 0 0 0 0 0 0 0 0 0 0 0 0 0 0 0 0 0 0 0 0 0 0 0
0 0 0 0 0 0 0 0 0 0 0 0 0 0 0 0 0 0 0 0 0 0 0 0 0 0 0 0 0 0 0 0 0 0 0 0 0 0 0 0 0 0 0 0
0 0 0 0 0 0 0 0 0 0 0 0 0 0 0 0 0 0 0 0 0 0 0 0 0 0 0 0 0 0 0 0 0 0 0 0 0 0 0 0 0 0 0 0
0 0 0 0 0 0 0 0 0 0 0 0 0 0 0 0 0 0 0 0 0 0 0 0 0 0 0 0 0 0 0 0 0 0 0 0 0 0 0 0 0 0 0 0
0 0 0 0 0 0 0 0 0 0 0 0 0 0 0 0 0 0 0 0 0 0 0 0 0 0 0 0 0 0 0 0 0 0 0 0 0 0 0 0 0 0 0 0
0 0 0 0 0 0 0 0 0 0 0 0 0 0 0 0 0 0 0 0 0 0 0 0 0 0 0 0 0 0 0 0 0 0 0 0 0 0 0 0 0 0 0 0
0 0 0 0 0 0 0 0 0 0 0 0 0 0 0 0 0 0 0 0 0 0 0 0 0 0 0 0 0 0 0 0 0 0 0 0 0 0 0 0 0 0 0 0
0 0 0 0 0 0 0 0 0 0 0 0 0 0 0 0 0 0 0 0 0 0 0 0 0 0 0 0 0 0 0 0 0 0 0 0 0 0 0 0 0 0 0 0
0 0 0 0 0 0 0 0 0 0 0 0 0 0 0 0 0 0 0 0 0 0 0 0 0 0 0 0 0 0 0 0 0 0 0 0 0 0 0 0 0 0 0 0
Wind_Speed
8 9 8 9 8 8 10 10 8 8 8 7 5 4 3 3 3 3 4 3 3 3 4 4 3 3 3 4 4 4 4 5 5 4 4 4 4 3 3 3 3 3 2 2
7 8 8 11 12 12 12 13 13 12 13 7 3 3 3 4 4 4 4 4 4 4 4 4 4 4 4 4 4 4 5 5 5 4 4 4 4 4 3 3 3 3 3 2
5 4 6 9 9 11 8 7 8 11 8 3 4 4 4 5 5 4 4 5 5 4 4 4 4 4 4 4 4 4 5 5 5 4 4 4 4 4 4 4 3 3 3 3
5 5 7 5 1 1 5 6 7 6 4 4 4 4 4 4 3 4 5 5 5 5 4 4 4 4 4 4 4 4 5 5 5 5 5 4 4 5 4 3 3 4 4 4
3 5 9 5 1 1 1 4 3 4 4 3 3 4 3 1 2 3 4 5 5 5 5 5 4 4 4 4 4 5 5 5 5 5 5 5 5 5 4 4 4 4 3 4
4 4 7 2 2 2 1 3 2 2 2 3 4 4 4 4 5 6 5 5 5 5 5 5 5 3 4 5 5 6 6 5 4 4 5 6 6 5 4 4 4 4 4 4
7 6 8 2 3 2 1 2 2 2 2 3 4 5 6 6 7 6 6 6 6 6 5 6 5 3 5 6 7 6 4 4 4 5 5 5 5 4 4 4 4 4 4 4
6 7 9 2 3 3 3 2 2 3 3 5 6 7 8 8 8 8 7 7 6 6 6 5 4 4 6 7 6 4 4 4 4 5 4 4 4 4 4 4 4 4 4 4
8 8 3 3 4 4 2 4 4 4 5 5 7 8 9 9 9 8 8 7 6 6 7 6 5 5 7 7 4 4 4 5 4 4 4 4 4 4 4 4 4 4 4 4
6 7 6 6 5 4 4 4 5 5 6 6 8 9 10 9 8 8 8 7 6 6 7 7 6 6 7 6 4 4 5 5 4 4 4 4 4 4 4 5 5 5 5 4
9 8 8 7 5 4 5 5 6 6 7 7 8 9 9 9 8 8 7 7 6 6 7 8 6 7 6 5 4 5 5 4 4 4 4 4 4 4 5 5 6 6 5 5
10 7 6 7 5 6 7 6 6 7 8 7 7 9 9 9 8 7 7 7 7 7 8 8 6 7 6 5 5 5 5 5 4 4 4 4 4 4 6 7 8 9 8 6
11 8 7 8 7 7 7 7 6 7 8 9 8 8 8 8 7 7 8 8 8 7 8 7 7 7 6 5 5 6 6 5 4 4 4 4 4 4 4 4 7 8 9 9
7 7 9 8 7 6 6 7 7 7 7 8 7 7 7 8 8 8 9 8 7 7 8 7 7 7 6 5 6 6 6 6 6 5 5 5 5 5 4 4 4 4 6 10
6 5 7 7 7 6 6 6 7 7 7 7 6 7 7 8 9 9 8 7 7 8 8 7 7 7 5 5 6 6 6 5 5 4 4 4 4 4 4 5 4 4 2 4
5 5 5 6 6 6 6 6 7 7 7 7 7 7 8 8 9 9 8 7 7 9 8 7 8 7 5 5 6 5 5 8 7 4 4 4 4 4 5 5 4 4 5 4
4 4 4 5 6 6 6 6 6 6 7 7 8 8 8 8 9 9 8 8 8 8 8 8 8 7 5 6 6 5 4 5 8 5 5 5 5 5 5 5 5 5 5 6
3 3 4 5 5 6 7 6 6 7 7 8 8 8 8 8 9 10 9 8 8 8 8 8 7 6 6 5 5 4 4 4 4 5 5 5 5 5 5 5 6 6 4 5
3 4 5 5 5 5 6 7 7 7 8 7 7 8 8 9 9 9 8 8 8 10 8 6 8 6 5 6 5 4 4 5 5 5 5 7 6 5 5 5 5 5 5 4
4 4 5 6 6 6 7 7 7 7 7 7 8 9 9 9 8 8 8 8 8 7 7 7 6 5 5 5 6 4 5 5 5 5 5 5 5 5 5 6 6 5 5 5
5 5 6 6 7 7 7 7 7 8 8 7 8 9 10 10 9 8 7 9 9 7 7 8 5 4 4 4 6 4 5 5 5 5 5 5 5 6 6 6 6 5 5 5
6 6 7 7 7 8 8 7 7 9 9 9 9 9 9 10 9 8 8 8 9 9 6 4 4 6 6 6 4 4 5 5 5 5 5 5 6 6 6 6 6 5 5 5
7 7 8 8 8 9 9 9 9 9 9 10 10 10 10 9 7 7 9 7 5 8 6 5 7 9 9 5 4 5 5 6 5 5 5 5 6 5 5 6 5 5 4 4
9 9 9 9 8 9 12 12 10 8 9 10 10 10 9 8 8 7 7 9 10 10 6 7 10 11 9 4 4 5 5 5 5 5 5 5 5 5 5 5 5 4 4 5
9 9 9 9 10 10 11 11 10 9 9 8 9 9 8 7 8 7 6 7 10 9 6 8 11 11 7 4 5 5 5 5 5 5 5 5 5 5 5 4 5 4 4 4
10 9 9 10 9 9 8 7 7 8 7 8 8 7 6 5 7 7 6 7 8 9 7 5 6 6 5 5 5 5 5 5 6 5 5 5 5 5 4 4 5 4 4 4
9 9 8 8 9 8 8 8 8 9 8 8 9 8 6 6 5 6 7 6 6 6 5 5 4 4 4 4 5 5 4 4 4 4 4 4 4 4 4 5 4 3 3 4
Wind_Direction
276 283 278 266 258 238 225 221 233 253 268 285 310 318 318 315 320 316 302 293 276 252 247 239 229 226 223 226 222 217 222 231 235 235 229 227 229 230 234 239 244 244 252 263
278 259 260 264 252 244 243 236 244 262 275 277 294 325 321 321 320 309 308 310 300 284 269 253 236 231 229 228 224 216 224 232 233 231 229 226 224 226 232 233 237 236 243 250
280 296 304 269 243 222 223 222 225 243 254 293 314 319 315 313 311 315 323 318 307 291 276 264 244 228 227 227 223 220 228 232 227 224 226 225 223 224 229 230 231 232 234 238
288 312 258 248 17 209 228 242 231 248 282 310 310 311 300 291 300 321 325 319 310 298 284 273 252 238 228 221 222 224 230 232 226 220 225 226 225 228 229 221 225 229 229 224
265 278 278 265 207 177 239 277 238 239 277 303 326 326 306 19 13 325 311 303 296 291 285 274 256 238 229 227 227 230 234 232 226 222 224 226 227 230 227 220 225 226 225 219
242 252 258 274 94 54 29 276 42 58 345 333 342 317 284 337 336 316 304 295 292 289 288 281 265 237 230 235 232 235 234 233 227 223 224 227 228 228 224 221 223 223 228 221
238 250 264 271 127 106 210 249 19 15 328 308 283 263 285 307 303 297 293 289 286 281 276 271 265 241 240 242 240 238 231 228 226 224 226 228 226 222 219 217 220 222 227 229
208 227 251 164 139 198 243 323 327 316 305 294 285 290 295 294 292 291 290 287 284 279 275 272 262 245 246 248 245 234 226 226 227 226 226 225 220 222 214 208 215 226 227 235
206 224 255 180 220 244 277 290 293 293 294 290 287 286 287 288 289 288 286 284 280 276 275 269 256 244 249 252 241 229 227 229 230 228 225 218 215 218 218 212 216 223 221 228
269 267 280 277 274 279 287 290 297 294 289 285 281 283 285 285 285 285 283 280 276 276 274 270 259 250 250 248 229 224 231 232 227 225 227 223 220 217 218 217 217 221 222 225
266 274 286 274 277 295 306 304 298 292 285 282 283 285 284 285 282 281 282 279 273 268 268 267 262 254 250 238 223 226 231 231 229 225 223 225 225 225 227 229 221 217 218 214
258 263 274 286 304 310 302 295 291 290 289 284 278 280 283 281 279 279 280 279 274 268 268 268 263 258 250 231 219 221 232 231 227 225 223 222 229 248 241 236 241 236 230 221
265 282 284 288 294 297 293 295 293 287 284 286 283 280 282 283 283 281 280 278 272 270 269 269 265 261 249 228 219 221 230 231 227 222 221 220 221 228 250 256 245 242 236 229
270 281 282 283 285 291 291 289 286 282 280 278 281 284 284 284 284 282 278 276 274 274 272 268 263 260 250 227 222 228 231 232 229 223 219 219 221 225 228 232 246 249 235 229
269 269 275 287 291 294 293 291 292 289 288 289 287 287 286 284 284 282 280 279 278 275 271 268 264 262 250 225 223 228 232 233 227 224 220 220 222 225 228 228 232 239 239 230
280 279 279 286 293 297 298 295 290 290 293 293 293 292 289 285 283 283 281 277 276 276 274 270 266 263 249 231 228 230 232 234 231 225 222 222 222 225 228 228 230 230 229 225
281 284 291 297 297 297 295 291 288 289 293 294 295 297 295 292 290 288 284 278 271 272 273 270 267 262 245 230 225 228 230 232 228 228 223 222 223 226 227 226 230 234 235 222
267 269 273 277 284 293 297 297 295 294 292 290 294 296 295 291 288 288 288 289 285 281 275 266 262 258 245 231 224 223 223 226 225 228 228 226 227 225 226 228 230 234 238 228
282 279 281 285 286 285 284 285 288 288 290 291 291 290 287 285 284 285 289 289 286 285 284 273 267 258 246 236 229 224 224 227 230 232 231 233 235 228 227 229 233 233 228 221
276 277 279 282 281 275 276 280 283 285 284 283 286 288 288 286 285 286 285 279 270 268 277 280 274 260 244 236 231 230 227 226 229 233 232 230 231 233 231 230 231 230 225 222
270 273 275 277 278 276 272 274 277 280 283 280 278 280 282 284 283 281 281 284 281 271 271 273 267 259 247 238 234 233 230 229 230 231 231 234 235 235 233 232 230 227 224 221
267 271 275 277 278 279 276 271 269 272 276 277 274 275 280 284 284 278 266 265 275 279 276 269 264 257 252 248 237 234 236 236 236 233 232 233 234 236 235 231 229 225 220 215
265 266 269 271 272 276 280 275 268 267 269 271 272 273 272 274 274 275 281 274 270 274 274 266 264 263 262 256 241 239 240 240 239 235 235 234 234 235 234 231 227 220 215 211
263 267 269 272 274 276 278 278 273 267 265 266 265 263 264 272 274 260 257 275 279 278 273 269 269 268 266 255 243 243 244 242 240 239 238 236 235 234 232 229 225 219 212 206
257 262 266 269 269 268 268 270 273 270 267 266 266 263 256 250 258 271 271 271 275 277 276 273 272 270 264 250 244 245 246 243 240 237 235 233 232 232 231 225 219 213 207 203
255 258 260 257 258 262 264 265 266 267 267 270 272 268 262 256 255 262 267 267 267 268 268 267 264 262 255 248 245 244 244 247 248 244 237 232 231 229 226 221 214 208 202 198
254 255 258 260 260 256 255 256 259 263 260 261 270 271 267 263 260 261 263 265 266 264 263 262 256 252 252 250 248 247 245 243 240 239 235 232 228 223 217 212 207 199 191 188